Coleman, TX

3:31 PM CDT on August 30, 2016 (GMT -0500)
Coleman Municipal

Weather History for KCOM - March, 2014

Change the Weather History Date:

Tuesday, March 11, 2014

  Actual Average (KABI) Record (KABI)
Temperature  
Mean Temperature 69 °F 55 °F  
Max Temperature 88 °F 67 °F 92 °F (1967)
Min Temperature 50 °F 43 °F 9 °F (1948)
Degree Days  
Heating Degree Days 0 11  
Month to date heating degree days 132  
Since 1 July heating degree days 2265  
Cooling Degree Days 4 1  
Month to date cooling degree days 6  
Year to date cooling degree days 11  
Growing Degree Days 19 (Base 50)    
Moisture  
Dew Point 38 °F    
Average Humidity 50    
Maximum Humidity 92    
Minimum Humidity 6    
Precipitation  
Precipitation 0.00 in 0.05 in 2.19 in (1902)
Month to date precipitation 0.62  
Year to date precipitation 3.00  
Sea Level Pressure  
Sea Level Pressure 29.73 in    
Wind  
Wind Speed 12 mph (WSW)    
Max Wind Speed 34 mph    
Max Gust Speed 44 mph    
Visibility 10 miles    
Events      
T = Trace of Precipitation, MM = Missing Value Source: NWS Daily Summary

Daily Weather History Graph

Daily Weather History Graph

Search for Another Location

Airport or City:

Trip Planner

Search our weather history database for the weather conditions in past years. The results will help you decide how hot, cold, wet, or windy it might be!

Date:

Astronomy

Mar. 11, 2014 Rise Set
Actual Time 7:52 AM CDT 7:42 PM CDT
Civil Twilight 7:28 AM CDT 8:07 PM CDT
Nautical Twilight 7:00 AM CDT 8:35 PM CDT
Astronomical Twilight 6:31 AM CDT 9:03 PM CDT
Moon 3:33 PM CDT (3/11) 4:34 AM CDT (3/11)
Length of Visible Light 12h 38m
Length of Day
11h 50m
Waxing Gibbous, 78% of the Moon is Illuminated
Mar 11
Waxing Gibbous
Mar 16
Full
Mar 23
Last Quarter
Mar 30
New
Apr 7
First Quarter

Hourly Weather History & Observations

Time (CDT) Temp. Dew Point Humidity Pressure Visibility Wind Dir Wind Speed Gust Speed Precip Events Conditions
12:15 AM 59.0 °F 50.0 °F 72% 29.88 in 10.0 mi SW 11.5 mph - N/A   Clear
12:35 AM 58.5 °F 49.6 °F 72% 29.87 in 10.0 mi SW 8.1 mph - N/A   Clear
12:55 AM 58.1 °F 49.6 °F 73% 29.86 in 10.0 mi SSW 9.2 mph - N/A   Clear
1:15 AM 55.2 °F 48.6 °F 78% 29.86 in 10.0 mi South 9.2 mph - N/A   Clear
1:35 AM 54.0 °F 48.4 °F 81% 29.85 in 10.0 mi South 6.9 mph - N/A   Clear
1:55 AM 54.3 °F 48.6 °F 81% 29.84 in 10.0 mi SSW 5.8 mph - N/A   Clear
2:15 AM 53.2 °F 48.4 °F 84% 29.84 in 10.0 mi SSW 3.5 mph - N/A   Clear
2:35 AM 52.9 °F 48.2 °F 84% 29.83 in 10.0 mi SW 4.6 mph - N/A   Clear
2:55 AM 52.2 °F 47.8 °F 85% 29.82 in 10.0 mi SW 4.6 mph - N/A   Clear
3:15 AM 51.8 °F 47.7 °F 86% 29.81 in 10.0 mi SW 5.8 mph - N/A   Clear
3:30 AM 51.1 °F 47.5 °F 87% 29.81 in 10.0 mi SSW 5.8 mph - N/A   Clear
3:55 AM 50.9 °F 47.7 °F 89% 29.80 in 10.0 mi SW 3.5 mph - N/A   Clear
4:15 AM 50.0 °F 47.3 °F 90% 29.78 in 10.0 mi SW 6.9 mph - N/A   Clear
4:35 AM 50.7 °F 47.8 °F 90% 29.78 in 10.0 mi SSW 3.5 mph - N/A   Clear
4:55 AM 50.0 °F 47.3 °F 90% 29.77 in 10.0 mi SW 6.9 mph - N/A   Clear
5:15 AM 50.9 °F 48.7 °F 92% 29.77 in 10.0 mi SW 8.1 mph - N/A   Scattered Clouds
5:35 AM 52.0 °F 49.5 °F 91% 29.76 in 10.0 mi SW 10.4 mph 17.3 mph N/A   Overcast
5:55 AM 52.7 °F 50.0 °F 91% 29.75 in 10.0 mi SW 11.5 mph 18.4 mph N/A   Overcast
6:15 AM 52.9 °F 50.2 °F 91% 29.75 in 10.0 mi WSW 15.0 mph 20.7 mph N/A   Overcast
6:35 AM 53.1 °F 50.0 °F 89% 29.75 in 10.0 mi SW 11.5 mph 16.1 mph N/A   Overcast
6:55 AM 53.6 °F 50.2 °F 88% 29.75 in 10.0 mi SW 10.4 mph - N/A   Overcast
7:15 AM 53.6 °F 50.0 °F 88% 29.75 in 10.0 mi SW 9.2 mph - N/A   Overcast
7:35 AM 53.6 °F 50.0 °F 88% 29.75 in 10.0 mi SW 8.1 mph 16.1 mph N/A   Overcast
7:55 AM 53.6 °F 49.6 °F 86% 29.74 in 10.0 mi SW 10.4 mph 16.1 mph N/A   Overcast
8:10 AM 53.8 °F 49.6 °F 86% 29.74 in 10.0 mi SW 12.7 mph 18.4 mph N/A   Overcast
8:35 AM 53.8 °F 49.6 °F 86% 29.75 in 10.0 mi SW 10.4 mph 18.4 mph N/A   Overcast
8:55 AM 54.1 °F 49.6 °F 85% 29.76 in 10.0 mi SW 11.5 mph 17.3 mph N/A   Overcast
9:15 AM 54.5 °F 49.6 °F 84% 29.75 in 10.0 mi SW 12.7 mph 19.6 mph N/A   Overcast
9:35 AM 55.4 °F 49.5 °F 80% 29.75 in 10.0 mi SW 13.8 mph 20.7 mph N/A   Overcast
9:55 AM 56.5 °F 49.1 °F 76% 29.76 in 10.0 mi SW 13.8 mph 20.7 mph N/A   Overcast
10:15 AM 58.3 °F 49.5 °F 72% 29.75 in 10.0 mi SW 12.7 mph - N/A   Mostly Cloudy
10:35 AM 59.2 °F 49.5 °F 70% 29.75 in 10.0 mi SW 12.7 mph 20.7 mph N/A   Scattered Clouds
10:55 AM 61.3 °F 48.7 °F 63% 29.75 in 10.0 mi WSW 16.1 mph 19.6 mph N/A   Clear
11:15 AM 63.9 °F 48.6 °F 57% 29.74 in 10.0 mi WSW 17.3 mph 21.9 mph N/A   Clear
11:35 AM 65.3 °F 47.3 °F 52% 29.74 in 10.0 mi WSW 17.3 mph 20.7 mph N/A   Clear
11:55 AM 66.9 °F 46.8 °F 48% 29.74 in 10.0 mi WSW 17.3 mph 24.2 mph N/A   Clear
12:15 PM 68.4 °F 46.9 °F 46% 29.73 in 10.0 mi WSW 16.1 mph 19.6 mph N/A   Clear
12:35 PM 70.2 °F 46.2 °F 42% 29.71 in 10.0 mi SW 18.4 mph 23.0 mph N/A   Clear
12:55 PM 72.5 °F 43.9 °F 36% 29.70 in 10.0 mi WSW 16.1 mph 23.0 mph N/A   Clear
1:15 PM 74.5 °F 42.8 °F 32% 29.69 in 10.0 mi WSW 17.3 mph 23.0 mph N/A   Clear
1:35 PM 75.9 °F 42.3 °F 30% 29.67 in 10.0 mi WSW 17.3 mph 25.3 mph N/A   Clear
1:55 PM 77.7 °F 41.9 °F 28% 29.66 in 10.0 mi WSW 19.6 mph 26.5 mph N/A   Clear
2:15 PM 78.8 °F 39.2 °F 24% 29.65 in 10.0 mi WSW 13.8 mph 26.5 mph N/A   Clear
2:35 PM 80.2 °F 38.8 °F 23% 29.64 in 10.0 mi WSW 18.4 mph 26.5 mph N/A   Clear
2:55 PM 81.9 °F 36.9 °F 20% 29.63 in 10.0 mi WSW 18.4 mph 24.2 mph N/A   Clear
3:15 PM 83.3 °F 33.1 °F 16% 29.62 in 10.0 mi West 12.7 mph 24.2 mph N/A   Clear
3:35 PM 84.7 °F 30.9 °F 14% 29.60 in 10.0 mi West 18.4 mph 24.2 mph N/A   Clear
3:55 PM 86.0 °F 28.6 °F 13% 29.60 in 10.0 mi WSW 18.4 mph 25.3 mph N/A   Clear
4:15 PM 87.8 °F 24.4 °F 10% 29.58 in 10.0 mi West 16.1 mph 23.0 mph N/A   Clear
4:35 PM 88.3 °F 22.3 °F 9% 29.58 in 10.0 mi West 17.3 mph 32.2 mph N/A   Clear
4:55 PM 88.2 °F 22.1 °F 9% 29.57 in 10.0 mi West 13.8 mph 25.3 mph N/A   Clear
5:15 PM 88.9 °F 20.7 °F 8% 29.57 in 7.0 mi West 15.0 mph 28.8 mph N/A   Scattered Clouds
5:35 PM 88.5 °F 21.2 °F 9% 29.57 in 10.0 mi West 13.8 mph 18.4 mph N/A   Clear
5:55 PM 88.7 °F 14.2 °F 6% 29.58 in 7.0 mi WNW 19.6 mph 29.9 mph N/A   Clear
6:15 PM 87.8 °F 14.2 °F 7% 29.58 in 10.0 mi WNW 17.3 mph 24.2 mph N/A   Clear
6:35 PM 86.9 °F 14.5 °F 7% 29.58 in 10.0 mi West 16.1 mph 23.0 mph N/A   Clear
6:55 PM 86.2 °F 14.4 °F 7% 29.59 in 10.0 mi West 16.1 mph 24.2 mph N/A   Clear
7:15 PM 84.6 °F 15.1 °F 8% 29.60 in 10.0 mi West 15.0 mph 21.9 mph N/A   Clear
7:35 PM 82.8 °F 16.2 °F 8% 29.62 in 10.0 mi WNW 11.5 mph - N/A   Clear
7:55 PM 81.1 °F 15.8 °F 9% 29.64 in 10.0 mi WNW 9.2 mph - N/A   Clear
8:15 PM 77.2 °F 16.7 °F 10% 29.65 in 10.0 mi West 6.9 mph - N/A   Clear
8:35 PM 77.5 °F 15.8 °F 10% 29.65 in 10.0 mi West 8.1 mph - N/A   Mostly Cloudy
8:55 PM 77.0 °F 15.8 °F 10% 29.68 in 10.0 mi NW 9.2 mph - N/A   Scattered Clouds
9:15 PM 74.8 °F 16.2 °F 11% 29.69 in 10.0 mi NW 9.2 mph - N/A   Clear
9:35 PM 73.0 °F 16.9 °F 12% 29.70 in 10.0 mi WNW 5.8 mph - N/A   Clear
9:55 PM 73.9 °F 22.3 °F 14% 29.74 in 10.0 mi North 20.7 mph 24.2 mph N/A   Clear
10:15 PM 71.1 °F 32.4 °F 24% 29.77 in 7.0 mi North 25.3 mph 34.5 mph N/A   Clear
10:35 PM 68.4 °F 33.6 °F 28% 29.80 in 10.0 mi North 26.5 mph 34.5 mph N/A   Clear
10:55 PM 66.6 °F 33.4 °F 29% 29.82 in 10.0 mi North 29.9 mph 35.7 mph N/A   Clear
11:15 PM 63.9 °F 33.3 °F 32% 29.86 in 7.0 mi North 34.5 mph 40.3 mph N/A   Clear
11:35 PM 61.0 °F 32.7 °F 35% 29.89 in 7.0 mi North 34.5 mph 43.7 mph N/A   Clear
11:55 PM 57.7 °F 32.0 °F 38% 29.92 in 7.0 mi North 34.5 mph 42.6 mph N/A   Clear